Siemreap, Cambodia

4:52 PM ICT on December 06, 2016 (GMT +0700)
Siem Reap

Weather History for VDSR - May, 2014

Change the Weather History Date:

Tuesday, May 20, 2014

  Actual Average Record
Temperature  
Mean Temperature 89 °F -  
Max Temperature 96 °F - - ()
Min Temperature 82 °F - - ()
Cooling Degree Days 24    
Growing Degree Days 39 (Base 50)    
Moisture  
Dew Point 75 °F    
Average Humidity 64    
Maximum Humidity 89    
Minimum Humidity 41    
Precipitation  
Precipitation 0.00 in - - ()
Sea Level Pressure  
Sea Level Pressure 29.72 in    
Wind  
Wind Speed 4 mph ()    
Max Wind Speed 8 mph    
Max Gust Speed -    
Visibility 6.2 miles    
Events      
T = Trace of Precipitation, MM = Missing Value Source: Averaged Metar Reports

Daily Weather History Graph

Daily Weather History Graph

Search for Another Location

Airport or City:

Trip Planner

Search our weather history database for the weather conditions in past years. The results will help you decide how hot, cold, wet, or windy it might be!

Date:

Astronomy

May. 20, 2014 Rise Set
Actual Time 5:37 AM ICT 6:24 PM ICT
Civil Twilight 5:14 AM ICT 6:47 PM ICT
Nautical Twilight 4:48 AM ICT 7:14 PM ICT
Astronomical Twilight 4:20 AM ICT 7:41 PM ICT
Moon 11:39 PM ICT (5/20) 10:47 AM ICT (5/20)
Length of Visible Light 13h 32m
Length of Day
12h 46m
Waning Gibbous, 65% of the Moon is Illuminated
May 20
Waning Gibbous
May 21
Last Quarter
May 29
New
Jun 6
First Quarter
Jun 13
Full

Hourly Weather History & Observations

Time (ICT) Temp. Heat Index Dew Point Humidity Pressure Visibility Wind Dir Wind Speed Gust Speed Precip Events Conditions
12:00 AM 82.4 °F 92.4 °F 78.8 °F 89% 29.77 in 6.2 mi Variable 1.2 mph - N/A   Partly Cloudy
1:00 AM 82.4 °F 92.4 °F 78.8 °F 89% 29.74 in 6.2 mi Variable 2.3 mph - N/A   Partly Cloudy
7:00 AM 82.4 °F 92.4 °F 78.8 °F 89% 29.77 in 6.2 mi Variable 3.5 mph - N/A   Scattered Clouds
7:30 AM 84.2 °F 96.1 °F 78.8 °F 84% 29.77 in 6.2 mi WNW 4.6 mph - N/A   Scattered Clouds
8:00 AM 86.0 °F 99.3 °F 78.8 °F 79% 29.77 in 6.2 mi WNW 6.9 mph - N/A   Scattered Clouds
8:30 AM 87.8 °F 102.5 °F 78.8 °F 75% 29.77 in 6.2 mi WNW 5.8 mph - N/A   Scattered Clouds
9:00 AM 89.6 °F 102.2 °F 77.0 °F 66% 29.77 in 6.2 mi WNW 8.1 mph - N/A   Scattered Clouds
9:30 AM 89.6 °F 99.8 °F 75.2 °F 62% 29.77 in 6.2 mi WNW 6.9 mph - N/A   Scattered Clouds
10:00 AM 91.4 °F 102.5 °F 75.2 °F 59% 29.77 in 6.2 mi WNW 8.1 mph - N/A   Scattered Clouds
10:30 AM 91.4 °F 100.1 °F 73.4 °F 55% 29.77 in 6.2 mi West 6.9 mph - N/A   Scattered Clouds
11:00 AM 91.4 °F 100.1 °F 73.4 °F 55% 29.77 in 6.2 mi West 5.8 mph - N/A   Partly Cloudy
11:30 AM 93.2 °F 100.5 °F 71.6 °F 49% 29.77 in 6.2 mi NW 6.9 mph - N/A   Partly Cloudy
12:00 PM 93.2 °F 102.4 °F 73.4 °F 52% 29.74 in 6.2 mi NW 6.9 mph - N/A   Partly Cloudy
12:30 PM 95.0 °F 103.2 °F 71.6 °F 47% 29.74 in 6.2 mi NW 4.6 mph - N/A   Partly Cloudy
1:00 PM 95.0 °F 101.3 °F 69.8 °F 44% 29.71 in 6.2 mi Variable 3.5 mph - N/A   Partly Cloudy
1:30 PM 95.0 °F 103.2 °F 71.6 °F 47% 29.71 in 6.2 mi WSW 5.8 mph - N/A   Partly Cloudy
2:00 PM 95.0 °F 101.3 °F 69.8 °F 44% 29.68 in 6.2 mi Variable 4.6 mph - N/A   Partly Cloudy
2:30 PM 96.8 °F 103.1 °F 69.8 °F 41% 29.65 in 6.2 mi Variable 3.5 mph - N/A   Partly Cloudy
3:00 PM 96.8 °F 103.1 °F 69.8 °F 41% 29.65 in 6.2 mi Variable 3.5 mph - N/A   Partly Cloudy
3:30 PM 93.2 °F 100.5 °F 71.6 °F 49% 29.65 in 6.2 mi West 8.1 mph - N/A   Partly Cloudy
4:30 PM 93.2 °F 100.5 °F 71.6 °F 49% 29.65 in 6.2 mi WSW 6.9 mph - N/A   Partly Cloudy
5:00 PM 93.2 °F 102.4 °F 73.4 °F 52% 29.65 in 6.2 mi SW 5.8 mph - N/A   Partly Cloudy
5:30 PM 93.2 °F 105.0 °F 75.2 °F 56% 29.65 in 6.2 mi South 6.9 mph - N/A   Scattered Clouds
6:00 PM 91.4 °F 102.5 °F 75.2 °F 59% 29.65 in 6.2 mi SSE 6.9 mph - N/A   Scattered Clouds
6:30 PM 91.4 °F 102.5 °F 75.2 °F 59% 29.65 in 6.2 mi SSE 4.6 mph - N/A   Scattered Clouds
7:00 PM 87.8 °F 97.6 °F 75.2 °F 66% 29.68 in 6.2 mi SW 5.8 mph - N/A   Scattered Clouds
7:30 PM 86.0 °F 95.1 °F 75.2 °F 70% 29.68 in 6.2 mi SSW 6.9 mph - N/A   Scattered Clouds
8:00 PM 86.0 °F 93.4 °F 73.4 °F 66% 29.68 in 6.2 mi SSW 6.9 mph - N/A   Scattered Clouds
8:30 PM 84.2 °F 90.9 °F 73.4 °F 70% 29.71 in 6.2 mi West 4.6 mph - N/A   Scattered Clouds
9:00 PM 84.2 °F 92.3 °F 75.2 °F 74% 29.71 in 6.2 mi SSW 4.6 mph - N/A   Scattered Clouds
9:30 PM 82.4 °F 89.5 °F 75.2 °F 79% 29.74 in 6.2 mi SSW 4.6 mph - N/A   Scattered Clouds
10:00 PM 82.4 °F 90.9 °F 77.0 °F 84% 29.74 in 6.2 mi Variable 2.3 mph - N/A   Scattered Clouds
10:30 PM 82.4 °F 90.9 °F 77.0 °F 84% 29.74 in 6.2 mi Variable 1.2 mph - N/A   Scattered Clouds
11:30 PM 82.4 °F 90.9 °F 77.0 °F 84% 29.74 in 6.2 mi Calm Calm - N/A   Scattered Clouds